Year,Month,Day,Hour,Minute,Value (Times are PST for temperature in C)
2020,03,29,08,17,6.90
2020,03,29,08,18,6.90
2020,03,29,08,19,6.90
2020,03,29,08,20,6.90
2020,03,29,08,21,6.90
2020,03,29,08,22,7.00
2020,03,29,08,23,7.00
2020,03,29,08,24,7.10
2020,03,29,08,25,7.10
2020,03,29,08,26,7.10
2020,03,29,08,27,7.20
2020,03,29,08,28,7.20
2020,03,29,08,29,7.20
2020,03,29,08,30,7.20
2020,03,29,08,31,7.20
2020,03,29,08,32,7.20
2020,03,29,08,33,7.20
2020,03,29,08,34,7.20
2020,03,29,08,35,7.30
2020,03,29,08,36,7.20
2020,03,29,08,37,7.30
2020,03,29,08,38,7.30
2020,03,29,08,39,7.30
2020,03,29,08,40,7.30
2020,03,29,08,41,7.30
2020,03,29,08,42,7.30
2020,03,29,08,43,7.30
2020,03,29,08,44,7.30
2020,03,29,08,45,7.30
2020,03,29,08,46,7.30
2020,03,29,08,47,7.30
2020,03,29,08,48,7.30
2020,03,29,08,49,7.30
2020,03,29,08,50,7.40
2020,03,29,08,51,7.40
2020,03,29,08,52,7.40
2020,03,29,08,53,7.40
2020,03,29,08,54,7.50
2020,03,29,08,55,7.50
2020,03,29,08,56,7.60
2020,03,29,08,57,7.60
2020,03,29,08,58,7.70
2020,03,29,08,59,7.70
2020,03,29,09,00,7.80
2020,03,29,09,01,7.80
2020,03,29,09,02,7.80
2020,03,29,09,03,7.80
2020,03,29,09,04,7.80
2020,03,29,09,05,7.80
2020,03,29,09,06,7.80
2020,03,29,09,07,7.80
2020,03,29,09,08,7.80
2020,03,29,09,09,7.90
2020,03,29,09,10,7.90
2020,03,29,09,11,7.90
2020,03,29,09,12,8.00
2020,03,29,09,13,8.00
2020,03,29,09,14,8.00
2020,03,29,09,15,8.00
2020,03,29,09,16,8.00
2020,03,29,09,17,8.00
2020,03,29,09,18,8.10
2020,03,29,09,19,8.00
2020,03,29,09,20,8.00
2020,03,29,09,21,7.90
2020,03,29,09,22,7.90
2020,03,29,09,23,7.90
2020,03,29,09,24,7.90
2020,03,29,09,25,7.90
2020,03,29,09,26,7.90
2020,03,29,09,27,7.90
2020,03,29,09,28,7.90
2020,03,29,09,29,7.80
2020,03,29,09,30,7.80
2020,03,29,09,31,7.70
2020,03,29,09,32,7.70
2020,03,29,09,33,7.70
2020,03,29,09,34,7.70
2020,03,29,09,35,7.80
2020,03,29,09,36,7.80
2020,03,29,09,37,7.80
2020,03,29,09,38,7.90
2020,03,29,09,39,7.90
2020,03,29,09,40,7.90
2020,03,29,09,41,7.90
2020,03,29,09,42,7.90
2020,03,29,09,43,7.90
2020,03,29,09,44,7.90
2020,03,29,09,45,7.90
2020,03,29,09,46,7.90
2020,03,29,09,47,7.90
2020,03,29,09,48,7.90
2020,03,29,09,49,8.00
2020,03,29,09,50,8.00
2020,03,29,09,51,8.00
2020,03,29,09,52,8.10
2020,03,29,09,53,8.10
2020,03,29,09,54,8.20
2020,03,29,09,55,8.20
2020,03,29,09,56,8.30
2020,03,29,09,57,8.30
2020,03,29,09,58,8.40
2020,03,29,09,59,8.50
2020,03,29,10,00,8.60
2020,03,29,10,01,8.60
2020,03,29,10,02,8.70
2020,03,29,10,03,8.70
2020,03,29,10,04,8.70
2020,03,29,10,05,8.70
2020,03,29,10,06,8.70
2020,03,29,10,07,8.60
2020,03,29,10,08,8.60
2020,03,29,10,09,8.60
2020,03,29,10,10,8.60
2020,03,29,10,11,8.60
2020,03,29,10,12,8.50
2020,03,29,10,13,8.40
2020,03,29,10,14,8.40
2020,03,29,10,15,8.40
2020,03,29,10,16,8.50
2020,03,29,10,17,8.50
2020,03,29,10,18,8.50
2020,03,29,10,19,8.50
2020,03,29,10,20,8.60
2020,03,29,10,21,8.60
2020,03,29,10,22,8.60
2020,03,29,10,23,8.70
2020,03,29,10,24,8.70
2020,03,29,10,25,8.80
2020,03,29,10,26,8.80
2020,03,29,10,27,8.80
2020,03,29,10,28,8.90
2020,03,29,10,29,9.00
2020,03,29,10,30,9.10
2020,03,29,10,31,9.10
2020,03,29,10,32,9.20
2020,03,29,10,33,9.10
2020,03,29,10,34,9.00
2020,03,29,10,35,8.90
2020,03,29,10,36,8.90
2020,03,29,10,37,8.80
2020,03,29,10,38,8.80
2020,03,29,10,39,8.90
2020,03,29,10,40,8.90
2020,03,29,10,41,9.00
2020,03,29,10,42,9.00
2020,03,29,10,43,9.10
2020,03,29,10,44,9.20
2020,03,29,10,45,9.30
2020,03,29,10,46,9.50
2020,03,29,10,47,9.50
2020,03,29,10,48,9.50
2020,03,29,10,49,9.40
2020,03,29,10,50,9.40
2020,03,29,10,51,9.40
2020,03,29,10,52,9.40
2020,03,29,10,53,9.40
2020,03,29,10,54,9.40
2020,03,29,10,55,9.40
2020,03,29,10,56,9.40
2020,03,29,10,57,9.40
2020,03,29,10,58,9.30
2020,03,29,10,59,9.30
2020,03,29,11,00,9.20
2020,03,29,11,01,9.20
2020,03,29,11,02,9.20
2020,03,29,11,03,9.20
2020,03,29,11,04,9.30
2020,03,29,11,05,9.30
2020,03,29,11,06,9.20
2020,03,29,11,07,9.20
2020,03,29,11,08,9.20
2020,03,29,11,09,9.20
2020,03,29,11,10,9.10
2020,03,29,11,11,9.00
2020,03,29,11,12,9.00
2020,03,29,11,13,8.90
2020,03,29,11,14,8.90
2020,03,29,11,15,9.00
2020,03,29,11,16,9.00
2020,03,29,11,17,8.90
2020,03,29,11,18,8.90
2020,03,29,11,19,8.90
2020,03,29,11,20,8.90
2020,03,29,11,21,8.90
2020,03,29,11,22,8.90
2020,03,29,11,23,9.00
2020,03,29,11,24,9.10
2020,03,29,11,25,9.10
2020,03,29,11,26,9.10
2020,03,29,11,27,9.20
2020,03,29,11,28,9.20
2020,03,29,11,29,9.10
2020,03,29,11,30,9.10
2020,03,29,11,31,9.00
2020,03,29,11,32,9.00
2020,03,29,11,33,9.00
2020,03,29,11,34,9.10
2020,03,29,11,35,9.10
2020,03,29,11,36,9.20
2020,03,29,11,37,9.30
2020,03,29,11,38,9.30
2020,03,29,11,39,9.40
2020,03,29,11,40,9.50
2020,03,29,11,41,9.60
2020,03,29,11,42,9.70
2020,03,29,11,43,9.70
2020,03,29,11,44,9.80
2020,03,29,11,45,9.70
2020,03,29,11,46,9.70
2020,03,29,11,47,9.70
2020,03,29,11,48,9.60
2020,03,29,11,49,9.50
2020,03,29,11,50,9.50
2020,03,29,11,51,9.50
2020,03,29,11,52,9.60
2020,03,29,11,53,9.70
2020,03,29,11,54,9.80
2020,03,29,11,55,9.80
2020,03,29,11,56,9.80
2020,03,29,11,57,9.80
2020,03,29,11,58,9.80
2020,03,29,11,59,9.80
2020,03,29,12,00,9.80
2020,03,29,12,01,9.70
2020,03,29,12,02,9.70
2020,03,29,12,03,9.70
2020,03,29,12,04,9.70
2020,03,29,12,05,9.70
2020,03,29,12,06,9.70
2020,03,29,12,07,9.70
2020,03,29,12,08,9.60
2020,03,29,12,09,9.60
2020,03,29,12,10,9.50
2020,03,29,12,11,9.50
2020,03,29,12,12,9.60
2020,03,29,12,13,9.70
2020,03,29,12,14,9.80
2020,03,29,12,15,9.90
2020,03,29,12,16,10.10
2020,03,29,12,17,10.10
2020,03,29,12,18,10.20
2020,03,29,12,19,10.20
2020,03,29,12,20,10.20
2020,03,29,12,21,10.10
2020,03,29,12,22,10.10
2020,03,29,12,23,10.00
2020,03,29,12,24,9.90
2020,03,29,12,25,9.90
2020,03,29,12,26,9.90
2020,03,29,12,27,10.00
2020,03,29,12,28,10.10
2020,03,29,12,29,10.20
2020,03,29,12,30,10.20
2020,03,29,12,31,10.20
2020,03,29,12,32,10.30
2020,03,29,12,33,10.40
2020,03,29,12,34,10.60
2020,03,29,12,35,10.70
2020,03,29,12,36,10.80
2020,03,29,12,37,10.90
2020,03,29,12,38,10.80
2020,03,29,12,39,10.70
2020,03,29,12,40,10.60
2020,03,29,12,41,10.60
2020,03,29,12,42,10.60
2020,03,29,12,43,10.60
2020,03,29,12,44,10.60
2020,03,29,12,45,10.60
2020,03,29,12,46,10.50
2020,03,29,12,47,10.40
2020,03,29,12,48,10.30
2020,03,29,12,49,10.30
2020,03,29,12,50,10.20
2020,03,29,12,51,10.20
2020,03,29,12,52,10.30
2020,03,29,12,53,10.20
2020,03,29,12,54,10.20
2020,03,29,12,55,10.10
2020,03,29,12,56,10.10
2020,03,29,12,57,10.10
2020,03,29,12,58,10.10
2020,03,29,12,59,10.10
2020,03,29,13,00,10.10
2020,03,29,13,01,10.10
2020,03,29,13,02,10.10
2020,03,29,13,03,10.20
2020,03,29,13,04,10.20
2020,03,29,13,05,10.30
2020,03,29,13,06,10.40
2020,03,29,13,07,10.40
2020,03,29,13,08,10.50
2020,03,29,13,09,10.60
2020,03,29,13,10,10.60
2020,03,29,13,11,10.60
2020,03,29,13,12,10.60
2020,03,29,13,13,10.50
2020,03,29,13,14,10.40
2020,03,29,13,15,10.40
2020,03,29,13,16,10.50
2020,03,29,13,17,10.40
2020,03,29,13,18,10.50
2020,03,29,13,19,10.50
2020,03,29,13,20,10.70
2020,03,29,13,21,10.70
2020,03,29,13,22,10.80
2020,03,29,13,23,10.80
2020,03,29,13,24,10.80
2020,03,29,13,25,10.80
2020,03,29,13,26,10.80
2020,03,29,13,27,10.80
2020,03,29,13,28,10.90
2020,03,29,13,29,10.90
2020,03,29,13,30,10.90
2020,03,29,13,31,11.00
2020,03,29,13,32,11.00
2020,03,29,13,33,11.10
2020,03,29,13,34,11.10
2020,03,29,13,35,11.20
2020,03,29,13,36,11.30
2020,03,29,13,37,11.30
2020,03,29,13,38,11.30
2020,03,29,13,39,11.40
2020,03,29,13,40,11.40
2020,03,29,13,41,11.40
2020,03,29,13,42,11.40
2020,03,29,13,43,11.30
2020,03,29,13,44,11.30
2020,03,29,13,45,11.30
2020,03,29,13,46,11.30
2020,03,29,13,47,11.20
2020,03,29,13,48,11.20
2020,03,29,13,49,11.20
2020,03,29,13,50,11.00
2020,03,29,13,51,10.90
2020,03,29,13,52,10.90
2020,03,29,13,53,10.90
2020,03,29,13,54,10.90
2020,03,29,13,55,11.00
2020,03,29,13,56,11.00
2020,03,29,13,57,11.00
2020,03,29,13,58,11.10
2020,03,29,13,59,11.00
2020,03,29,14,00,10.90
2020,03,29,14,01,11.00
2020,03,29,14,02,11.00
2020,03,29,14,03,10.90
2020,03,29,14,04,10.90
2020,03,29,14,05,10.90
2020,03,29,14,06,10.80
2020,03,29,14,07,10.80
2020,03,29,14,08,10.70
2020,03,29,14,09,10.70
2020,03,29,14,10,10.90
2020,03,29,14,11,11.00
2020,03,29,14,12,11.00
2020,03,29,14,13,11.00
2020,03,29,14,14,11.20
2020,03,29,14,15,11.20
2020,03,29,14,16,11.20
2020,03,29,14,17,11.20
2020,03,29,14,18,11.10
2020,03,29,14,19,11.00
2020,03,29,14,20,11.00
2020,03,29,14,21,11.00
2020,03,29,14,22,11.00
2020,03,29,14,23,11.00
2020,03,29,14,24,11.10
2020,03,29,14,25,11.00
2020,03,29,14,26,10.90
2020,03,29,14,27,10.90
2020,03,29,14,28,10.80
2020,03,29,14,29,10.80
2020,03,29,14,30,10.90
2020,03,29,14,31,11.00
2020,03,29,14,32,11.20
2020,03,29,14,33,11.40
2020,03,29,14,34,11.50
2020,03,29,14,35,11.60
2020,03,29,14,36,11.60
2020,03,29,14,37,11.70
2020,03,29,14,38,11.70
2020,03,29,14,39,11.60
2020,03,29,14,40,11.40
2020,03,29,14,41,11.30
2020,03,29,14,42,11.20
2020,03,29,14,43,11.20
2020,03,29,14,44,11.20
2020,03,29,14,45,11.20
2020,03,29,14,46,11.20
2020,03,29,14,47,11.20
2020,03,29,14,48,11.20
2020,03,29,14,49,11.10
2020,03,29,14,50,11.10
2020,03,29,14,51,11.10
2020,03,29,14,52,11.00
2020,03,29,14,53,11.00
2020,03,29,14,54,11.00
2020,03,29,14,55,10.90
2020,03,29,14,56,10.90
2020,03,29,14,57,10.90
2020,03,29,14,58,11.00
2020,03,29,14,59,11.00
2020,03,29,15,00,11.00
2020,03,29,15,01,11.00
2020,03,29,15,02,11.10
2020,03,29,15,03,11.20
2020,03,29,15,04,11.20
2020,03,29,15,05,11.20
2020,03,29,15,06,11.30
2020,03,29,15,07,11.30
2020,03,29,15,08,11.30
2020,03,29,15,09,11.30
2020,03,29,15,10,11.30
2020,03,29,15,11,11.30
2020,03,29,15,12,11.20
2020,03,29,15,13,11.10
2020,03,29,15,14,10.90
2020,03,29,15,15,10.90
2020,03,29,15,16,10.80
2020,03,29,15,17,10.80
2020,03,29,15,18,10.80
2020,03,29,15,19,10.90
2020,03,29,15,20,10.90
2020,03,29,15,21,10.90
2020,03,29,15,22,10.90
2020,03,29,15,23,10.90
2020,03,29,15,24,10.90
2020,03,29,15,25,10.80
2020,03,29,15,26,10.80
2020,03,29,15,27,10.70
2020,03,29,15,28,10.70
2020,03,29,15,29,10.70
2020,03,29,15,30,10.70
2020,03,29,15,31,10.60
2020,03,29,15,32,10.60
2020,03,29,15,33,10.60
2020,03,29,15,34,10.60
2020,03,29,15,35,10.50
2020,03,29,15,36,10.50
2020,03,29,15,37,10.50
2020,03,29,15,38,10.50
2020,03,29,15,39,10.60
2020,03,29,15,40,10.60
2020,03,29,15,41,10.70
2020,03,29,15,42,10.70
2020,03,29,15,43,10.80
2020,03,29,15,44,10.80
2020,03,29,15,45,10.80
2020,03,29,15,46,10.80
2020,03,29,15,47,10.80
2020,03,29,15,48,10.80
2020,03,29,15,49,10.70
2020,03,29,15,50,10.70
2020,03,29,15,51,10.70
2020,03,29,15,52,10.70
2020,03,29,15,53,10.70
2020,03,29,15,54,10.70
2020,03,29,15,55,10.70
2020,03,29,15,56,10.80
2020,03,29,15,57,10.80
2020,03,29,15,58,10.70
2020,03,29,15,59,10.80
2020,03,29,16,00,10.80
2020,03,29,16,01,10.90
2020,03,29,16,02,10.90
2020,03,29,16,03,11.00
2020,03,29,16,04,11.00
2020,03,29,16,05,11.00
2020,03,29,16,06,11.10
2020,03,29,16,07,11.20
2020,03,29,16,08,11.20
2020,03,29,16,09,11.30
2020,03,29,16,10,11.30
2020,03,29,16,11,11.30
2020,03,29,16,12,11.40
2020,03,29,16,13,11.40
2020,03,29,16,14,11.50
2020,03,29,16,15,11.50
2020,03,29,16,16,11.60
2020,03,29,16,17,11.50
2020,03,29,16,18,11.40
2020,03,29,16,19,11.30
2020,03,29,16,20,11.10
2020,03,29,16,21,11.00
2020,03,29,16,22,11.00
2020,03,29,16,23,10.90
2020,03,29,16,24,10.90
2020,03,29,16,25,10.90
2020,03,29,16,26,10.80
2020,03,29,16,27,10.80
2020,03,29,16,28,10.80
2020,03,29,16,29,10.70
2020,03,29,16,30,10.70
2020,03,29,16,31,10.70
2020,03,29,16,32,10.70
2020,03,29,16,33,10.70
2020,03,29,16,34,10.60
2020,03,29,16,35,10.60
2020,03,29,16,36,10.50
2020,03,29,16,37,10.50
2020,03,29,16,38,10.40
2020,03,29,16,39,10.40
2020,03,29,16,40,10.40
2020,03,29,16,41,10.40
2020,03,29,16,42,10.40
2020,03,29,16,43,10.30
2020,03,29,16,44,10.30
2020,03,29,16,45,10.30
2020,03,29,16,46,10.30
2020,03,29,16,47,10.30
2020,03,29,16,48,10.40
2020,03,29,16,49,10.30
2020,03,29,16,50,10.30
2020,03,29,16,51,10.30
2020,03,29,16,52,10.30
2020,03,29,16,53,10.30
2020,03,29,16,54,10.20
2020,03,29,16,55,10.20
2020,03,29,16,56,10.20
2020,03,29,16,57,10.20
2020,03,29,16,58,10.20
2020,03,29,16,59,10.10
2020,03,29,17,00,10.10
2020,03,29,17,01,10.00
2020,03,29,17,02,10.00
2020,03,29,17,03,10.00
2020,03,29,17,04,10.00
2020,03,29,17,05,10.00
2020,03,29,17,06,10.00
2020,03,29,17,07,10.00
2020,03,29,17,08,10.10
2020,03,29,17,09,10.10
2020,03,29,17,10,10.10
2020,03,29,17,11,10.10
2020,03,29,17,12,10.10
2020,03,29,17,13,10.10
2020,03,29,17,14,10.10
2020,03,29,17,15,10.10
2020,03,29,17,16,10.00
2020,03,29,17,17,10.00
2020,03,29,17,18,10.00
2020,03,29,17,19,10.00
2020,03,29,17,20,10.00
2020,03,29,17,21,10.10
2020,03,29,17,22,10.10
2020,03,29,17,23,10.00
2020,03,29,17,24,10.00
2020,03,29,17,25,9.90
2020,03,29,17,26,9.90
2020,03,29,17,27,9.90
2020,03,29,17,28,9.90
2020,03,29,17,29,9.80
2020,03,29,17,30,9.80
2020,03,29,17,31,9.80
2020,03,29,17,32,9.80
2020,03,29,17,33,9.70
2020,03,29,17,34,9.70
2020,03,29,17,35,9.70
2020,03,29,17,36,9.70
2020,03,29,17,37,9.70
2020,03,29,17,38,9.70
2020,03,29,17,39,9.70
2020,03,29,17,40,9.70
2020,03,29,17,41,9.60
2020,03,29,17,42,9.60
2020,03,29,17,43,9.60
2020,03,29,17,44,9.60
2020,03,29,17,45,9.50
2020,03,29,17,46,9.50
2020,03,29,17,47,9.50
2020,03,29,17,48,9.50
2020,03,29,17,49,9.50
2020,03,29,17,50,9.40
2020,03,29,17,51,9.50
2020,03,29,17,52,9.50
2020,03,29,17,53,9.50
2020,03,29,17,54,9.50
2020,03,29,17,55,9.50
2020,03,29,17,56,9.60
2020,03,29,17,57,9.60
2020,03,29,17,58,9.60
2020,03,29,17,59,9.60
2020,03,29,18,00,9.60
2020,03,29,18,01,9.60
2020,03,29,18,02,9.60
2020,03,29,18,03,9.60
2020,03,29,18,04,9.60
2020,03,29,18,05,9.60
2020,03,29,18,06,9.60
2020,03,29,18,07,9.60
2020,03,29,18,08,9.60
2020,03,29,18,09,9.60
2020,03,29,18,10,9.60
2020,03,29,18,11,9.60
2020,03,29,18,12,9.60
2020,03,29,18,13,9.60
2020,03,29,18,14,9.60
2020,03,29,18,15,9.60
2020,03,29,18,16,9.60
2020,03,29,18,17,9.60
2020,03,29,18,18,9.60
2020,03,29,18,19,9.60
2020,03,29,18,20,9.60
2020,03,29,18,21,9.60
2020,03,29,18,22,9.60
2020,03,29,18,23,9.60
2020,03,29,18,24,9.60
2020,03,29,18,25,9.60
2020,03,29,18,26,9.60
2020,03,29,18,27,9.60
2020,03,29,18,28,9.60
2020,03,29,18,29,9.60
2020,03,29,18,30,9.60
2020,03,29,18,31,9.60
2020,03,29,18,32,9.60
2020,03,29,18,33,9.60
2020,03,29,18,34,9.60
2020,03,29,18,35,9.40
2020,03,29,18,36,9.40
2020,03,29,18,37,9.40
2020,03,29,18,38,9.40
2020,03,29,18,39,9.30
2020,03,29,18,40,9.30
2020,03,29,18,41,9.30
2020,03,29,18,42,9.30
2020,03,29,18,43,9.30
2020,03,29,18,44,9.30
2020,03,29,18,45,9.30
2020,03,29,18,46,9.30
2020,03,29,18,47,9.30
2020,03,29,18,48,9.30
2020,03,29,18,49,9.30
2020,03,29,18,50,9.30
2020,03,29,18,51,9.30
2020,03,29,18,52,9.30
